Tümü
Landers Ranch Airport (Colorado City, TX) 1TS8 Hava Durumu
There is no TAF data available at 1TS8 or any nearby airports.
There is no METAR data available at 1TS8. Showing METAR data for KSWW (19 mi KD).
Yakın zamandaki SWW METAR geçmişi (1TS8 verisi yok)
| Date | Time (CDT) | Flight Rules | Wind Dir. | Speed | Type | Height AGL (ft) | Visibility | Temp (°C) | Temp (°F) | Dew Point (°C) | Dew Point (°F) | Rel. Humid. | Pressure | Density Altitude | Remarks |
|---|---|---|---|---|---|---|---|---|---|---|---|---|---|---|---|
| 31-Ağu | 06:55 | VFR | 190° | 9 kt | 10 miles | 25° | 77° | 17° | 62° | 62% | 30.05 in Hg | 3.924 ft | |||
| 31-Ağu | 06:35 | VFR | 190° | 9 kt | 10 miles | 25° | 77° | 17° | 62° | 60% | 30.05 in Hg | 3.924 ft | |||
| 31-Ağu | 06:15 | VFR | 180° | 10 kt | 10 miles | 25° | 77° | 17° | 62° | 59% | 30.05 in Hg | 3.924 ft | |||
| 31-Ağu | 05:55 | VFR | 180° | 12 kt | 10 miles | 25° | 77° | 16° | 60° | 57% | 30.05 in Hg | 3.924 ft | |||
| 31-Ağu | 05:35 | VFR | 180° | 14 kt | 10 miles | 26° | 78° | 16° | 60° | 56% | 30.05 in Hg | 4.044 ft | |||
| 31-Ağu | 05:15 | VFR | 170° | 12 kt | 10 miles | 26° | 78° | 16° | 60° | 54% | 30.04 in Hg | 4.054 ft | |||
| 31-Ağu | 04:55 | VFR | 170° | 11 kt | 10 miles | 26° | 78° | 16° | 60° | 52% | 30.04 in Hg | 4.054 ft | |||
| 31-Ağu | 04:35 | VFR | 170° | 14 kt | 10 miles | 27° | 80° | 16° | 60° | 51% | 30.04 in Hg | 4.174 ft | |||
| 31-Ağu | 04:15 | VFR | 170° | 13 kt | 10 miles | 27° | 80° | 15° | 59° | 50% | 30.04 in Hg | 4.174 ft | |||
| 31-Ağu | 03:55 | VFR | 170° | 11 kt | 10 miles | 27° | 80° | 15° | 59° | 49% | 30.03 in Hg | 4.184 ft | |||
| 31-Ağu | 03:35 | VFR | 180° | 10 kt | 10 miles | 27° | 80° | 15° | 59° | 48% | 30.03 in Hg | 4.184 ft | |||
| 31-Ağu | 03:15 | VFR | 180° | 10 kt | 10 miles | 27° | 80° | 15° | 59° | 46% | 30.03 in Hg | 4.184 ft | |||
| 31-Ağu | 02:55 | VFR | 180° | 10 kt | 10 miles | 27° | 80° | 14° | 57° | 45% | 30.03 in Hg | 4.184 ft | |||
| 31-Ağu | 02:35 | VFR | 180° | 10 kt | 10 miles | 28° | 82° | 14° | 57° | 44% | 30.03 in Hg | 4.304 ft | |||
| 31-Ağu | 02:15 | VFR | 170° | 10 kt | 10 miles | 28° | 82° | 14° | 57° | 43% | 30.04 in Hg | 4.294 ft | Wind gusting to 16 KT | ||
| 31-Ağu | 01:55 | VFR | 180° | 12 kt | 10 miles | 28° | 82° | 14° | 57° | 43% | 30.04 in Hg | 4.294 ft | |||
| 31-Ağu | 01:35 | VFR | 180° | 12 kt | 10 miles | 28° | 82° | 14° | 57° | 42% | 30.04 in Hg | 4.294 ft | |||
| 31-Ağu | 01:15 | VFR | 170° | 11 kt | 10 miles | 28° | 82° | 14° | 57° | 41% | 30.04 in Hg | 4.294 ft | |||
| 31-Ağu | 00:55 | VFR | 170° | 14 kt | 10 miles | 29° | 84° | 14° | 57° | 40% | 30.03 in Hg | 4.424 ft | |||
| 31-Ağu | 00:35 | VFR | 160° | 14 kt | 10 miles | 29° | 84° | 13° | 55° | 38% | 30.03 in Hg | 4.424 ft | Wind gusting to 19 KT | ||
| 31-Ağu | 00:15 | VFR | 160° | 11 kt | 10 miles | 30° | 86° | 13° | 55° | 37% | 30.03 in Hg | 4.544 ft | Wind gusting to 15 KT | ||
| 30-Ağu | 23:55 | VFR | 150° | 12 kt | 10 miles | 30° | 86° | 13° | 55° | 35% | 30.03 in Hg | 4.544 ft | |||
| 30-Ağu | 23:35 | VFR | 150° | 12 kt | 10 miles | 30° | 86° | 12° | 53° | 34% | 30.03 in Hg | 4.544 ft | Wind gusting to 17 KT | ||
| 30-Ağu | 23:15 | VFR | 140° | 8 kt | 10 miles | 30° | 86° | 12° | 53° | 33% | 30.03 in Hg | 4.544 ft |
Giriş
| Tarayıcınız desteklenmiyor. tarayıcınızı yükseltin |
